| time (UTC) | temp F | wind direction | speed knots | gust knots | rain 1hr in | rain 24hr in | rain mn in | humidity % | barometer mb |
| 20260902234611 | 74 | 181 | 0.9 | 1.7 | 0.00 | 0.00 | 0.00 | 60 | 1019.1 |
| 20260902233608 | 74 | 230 | 0.9 | 1.7 | 0.00 | 0.00 | 0.00 | 60 | 1018.9 |
| 20260902232606 | 74 | 234 | 1.7 | 3.5 | 0.00 | 0.00 | 0.00 | 61 | 1018.9 |
| 20260902231603 | 74 | 181 | 0.9 | 1.7 | 0.00 | 0.00 | 0.00 | 61 | 1018.8 |
| 20260902230600 | 75 | 244 | 0.9 | 3.5 | 0.00 | 0.00 | 0.00 | 60 | 1018.8 |
| 20260902225558 | 75 | 225 | 0.0 | 1.7 | 0.00 | 0.00 | 0.00 | 59 | 1018.8 |
| 20260902224555 | 75 | 246 | 0.9 | 1.7 | 0.00 | 0.00 | 0.00 | 60 | 1018.7 |
| 20260902223553 | 74 | 264 | 1.7 | 3.5 | 0.00 | 0.00 | 0.00 | 62 | 1018.7 |
| 20260902222550 | 74 | 225 | 0.9 | 1.7 | 0.00 | 0.00 | 0.00 | 66 | 1018.7 |
| 20260902221547 | 74 | 300 | 0.0 | 1.7 | 0.00 | 0.00 | 0.00 | 67 | 1018.9 |
| 20260902220545 | 74 | 248 | 1.7 | 3.5 | 0.00 | 0.00 | 0.00 | 70 | 1018.9 |
| 20260902215542 | 73 | 237 | 2.6 | 3.5 | 0.00 | 0.00 | 0.00 | 72 | 1018.9 |
| 20260902214540 | 74 | 249 | 2.6 | 3.5 | 0.00 | 0.00 | 0.00 | 71 | 1018.9 |
| 20260902213537 | 74 | 236 | 1.7 | 3.5 | 0.00 | 0.00 | 0.00 | 72 | 1018.8 |
| 20260902212534 | 74 | 248 | 1.7 | 1.7 | 0.00 | 0.00 | 0.00 | 72 | 1019.0 |
| 20260902211532 | 75 | 203 | 0.0 | 1.7 | 0.00 | 0.00 | 0.00 | 72 | 1018.9 |
| 20260902210529 | 75 | 203 | 0.0 | 1.7 | 0.00 | 0.00 | 0.00 | 72 | 1018.8 |
| 20260902205527 | 75 | 315 | 0.9 | 1.7 | 0.00 | 0.00 | 0.00 | 72 | 1018.7 |
| 20260902204524 | 75 | 270 | 0.9 | 1.7 | 0.00 | 0.00 | 0.00 | 72 | 1018.7 |
| 20260902203521 | 75 | 245 | 1.7 | 3.5 | 0.00 | 0.00 | 0.00 | 72 | 1018.7 |
| 20260902202519 | 76 | 207 | 0.9 | 1.7 | 0.00 | 0.00 | 0.00 | 71 | 1018.8 |
| 20260902201516 | 76 | 224 | 1.7 | 3.5 | 0.00 | 0.00 | 0.00 | 71 | 1018.8 |
| 20260902200614 | 76 | 276 | 0.9 | 1.7 | 0.00 | 0.00 | 0.00 | 71 | 1018.7 |
| 20260902195611 | 76 | 305 | 2.6 | 3.5 | 0.00 | 0.00 | 0.00 | 71 | 1018.7 |
| 20260902194608 | 76 | 311 | 3.5 | 5.2 | 0.00 | 0.00 | 0.00 | 70 | 1018.6 |
| 20260902193606 | 76 | 3 | 1.7 | 3.5 | 0.00 | 0.00 | 0.00 | 69 | 1018.4 |
| 20260902192603 | 76 | 1 | 1.7 | 3.5 | 0.00 | 0.00 | 0.00 | 69 | 1018.4 |
| 20260902191601 | 77 | 113 | 1.7 | 3.5 | 0.00 | 0.00 | 0.00 | 69 | 1018.4 |
| 20260902190558 | 77 | 101 | 1.7 | 5.2 | 0.00 | 0.00 | 0.00 | 68 | 1018.1 |
| 20260902185555 | 77 | 22 | 2.6 | 7.0 | 0.00 | 0.00 | 0.00 | 68 | 1018.0 |
| 20260902184553 | 77 | 92 | 1.7 | 6.1 | 0.00 | 0.00 | 0.00 | 68 | 1017.8 |
| 20260902183550 | 78 | 22 | 3.5 | 7.0 | 0.00 | 0.00 | 0.00 | 67 | 1017.8 |
| 20260902182548 | 78 | 37 | 3.5 | 9.6 | 0.00 | 0.00 | 0.00 | 66 | 1017.8 |
| 20260902181545 | 79 | 81 | 2.6 | 7.0 | 0.00 | 0.00 | 0.00 | 65 | 1017.6 |
| 20260902180542 | 79 | 31 | 3.5 | 7.8 | 0.00 | 0.00 | 0.00 | 64 | 1017.5 |
| 20260902175540 | 80 | 35 | 2.6 | 7.0 | 0.00 | 0.00 | 0.00 | 62 | 1017.4 |
| 20260902174537 | 80 | 60 | 3.5 | 9.6 | 0.00 | 0.00 | 0.00 | 62 | 1017.2 |
| 20260902173535 | 81 | 67 | 2.6 | 6.1 | 0.00 | 0.00 | 0.00 | 61 | 1017.3 |
| 20260902172532 | 81 | 57 | 4.3 | 9.6 | 0.00 | 0.00 | 0.00 | 60 | 1017.3 |
| 20260902171529 | 81 | 65 | 3.5 | 9.6 | 0.00 | 0.00 | 0.00 | 59 | 1017.3 |
| 20260902170527 | 82 | 30 | 3.5 | 9.6 | 0.00 | 0.00 | 0.00 | 59 | 1017.2 |
| 20260902165524 | 82 | 50 | 5.2 | 11.3 | 0.00 | 0.00 | 0.00 | 58 | 1017.3 |
| 20260902164522 | 82 | 39 | 3.5 | 7.8 | 0.00 | 0.00 | 0.00 | 56 | 1017.3 |
| 20260902163519 | 83 | 10 | 2.6 | 7.0 | 0.00 | 0.00 | 0.00 | 55 | 1017.2 |
| 20260902162517 | 83 | 39 | 6.1 | 11.3 | 0.00 | 0.00 | 0.00 | 54 | 1017.2 |
| 20260902161614 | 83 | 32 | 5.2 | 9.6 | 0.00 | 0.00 | 0.00 | 53 | 1017.1 |
| 20260902160612 | 85 | 118 | 2.6 | 7.8 | 0.00 | 0.00 | 0.00 | 50 | 1017.3 |
| 20260902155609 | 84 | 60 | 4.3 | 9.6 | 0.00 | 0.00 | 0.00 | 52 | 1017.3 |
| 20260902154606 | 84 | 81 | 3.5 | 7.8 | 0.00 | 0.00 | 0.00 | 51 | 1017.3 |
| 20260902153604 | 84 | 123 | 4.3 | 11.3 | 0.00 | 0.00 | 0.00 | 51 | 1017.3 |
| 20260902152601 | 86 | 66 | 3.5 | 9.6 | 0.00 | 0.00 | 0.00 | 48 | 1017.3 |
| 20260902151559 | 85 | 18 | 5.2 | 12.2 | 0.00 | 0.00 | 0.00 | 49 | 1017.4 |
| 20260902150556 | 85 | 44 | 3.5 | 9.6 | 0.00 | 0.00 | 0.00 | 48 | 1017.4 |
| 20260902145553 | 85 | 354 | 6.1 | 11.3 | 0.00 | 0.00 | 0.00 | 46 | 1017.3 |
| 20260902144551 | 86 | 59 | 5.2 | 11.3 | 0.00 | 0.00 | 0.00 | 45 | 1017.3 |
| 20260902143548 | 86 | 348 | 4.3 | 12.2 | 0.00 | 0.00 | 0.00 | 44 | 1017.4 |
| 20260902142546 | 87 | 59 | 4.3 | 7.8 | 0.00 | 0.00 | 0.00 | 43 | 1017.6 |
| 20260902141543 | 88 | 133 | 2.6 | 7.0 | 0.00 | 0.00 | 0.00 | 42 | 1017.6 |
| 20260902140540 | 87 | 66 | 4.3 | 7.8 | 0.00 | 0.00 | 0.00 | 42 | 1017.6 |
| 20260902135538 | 87 | 333 | 3.5 | 9.6 | 0.00 | 0.00 | 0.00 | 42 | 1017.6 |
| 20260902134535 | 86 | 45 | 3.5 | 11.3 | 0.00 | 0.00 | 0.00 | 42 | 1017.7 |
| 20260902133533 | 86 | 46 | 4.3 | 12.2 | 0.00 | 0.00 | 0.00 | 43 | 1017.7 |
| 20260902132530 | 86 | 337 | 4.3 | 11.3 | 0.00 | 0.00 | 0.00 | 43 | 1017.8 |
| 20260902131527 | 86 | 37 | 7.0 | 12.2 | 0.00 | 0.00 | 0.00 | 43 | 1017.8 |
| 20260902130525 | 87 | 2 | 4.3 | 9.6 | 0.00 | 0.00 | 0.00 | 42 | 1017.8 |
| 20260902125522 | 86 | 70 | 6.1 | 12.2 | 0.00 | 0.00 | 0.00 | 42 | 1017.9 |
| 20260902124520 | 87 | 328 | 3.5 | 11.3 | 0.00 | 0.00 | 0.00 | 40 | 1017.9 |
| 20260902123517 | 88 | 95 | 3.5 | 7.8 | 0.00 | 0.00 | 0.00 | 40 | 1017.8 |
| 20260902122515 | 88 | 131 | 2.6 | 7.8 | 0.00 | 0.00 | 0.00 | 39 | 1017.8 |
| 20260902121612 | 87 | 303 | 2.6 | 7.8 | 0.00 | 0.00 | 0.00 | 40 | 1017.8 |
| 20260902120610 | 87 | 53 | 4.3 | 11.3 | 0.00 | 0.00 | 0.00 | 40 | 1017.8 |
| 20260902115607 | 87 | 167 | 4.3 | 9.6 | 0.00 | 0.00 | 0.00 | 40 | 1018.0 |
| 20260902114604 | 87 | 78 | 3.5 | 12.2 | 0.00 | 0.00 | 0.00 | 41 | 1017.9 |
| 20260902113602 | 88 | 32 | 2.6 | 6.1 | 0.00 | 0.00 | 0.00 | 42 | 1017.9 |
| 20260902112559 | 88 | 293 | 2.6 | 7.0 | 0.00 | 0.00 | 0.00 | 42 | 1017.9 |
| 20260902111557 | 89 | 226 | 1.7 | 6.1 | 0.00 | 0.00 | 0.00 | 42 | 1017.7 |
| 20260902110554 | 88 | 97 | 1.7 | 3.5 | 0.00 | 0.00 | 0.00 | 42 | 1017.9 |
| 20260902105551 | 87 | 128 | 1.7 | 5.2 | 0.00 | 0.00 | 0.00 | 40 | 1018.0 |
| 20260902104549 | 87 | 32 | 2.6 | 9.6 | 0.00 | 0.00 | 0.00 | 39 | 1017.9 |
| 20260902103546 | 87 | 110 | 1.7 | 6.1 | 0.00 | 0.00 | 0.00 | 40 | 1018.0 |
| 20260902102544 | 87 | 109 | 1.7 | 6.1 | 0.00 | 0.00 | 0.00 | 40 | 1018.0 |
| 20260902101541 | 86 | 103 | 1.7 | 5.2 | 0.00 | 0.00 | 0.00 | 41 | 1018.0 |
| 20260902100539 | 86 | 71 | 2.6 | 6.1 | 0.00 | 0.00 | 0.00 | 43 | 1018.0 |
| 20260902095536 | 85 | 350 | 2.6 | 6.1 | 0.00 | 0.00 | 0.00 | 43 | 1018.0 |
| 20260902094533 | 85 | 140 | 2.6 | 7.0 | 0.00 | 0.00 | 0.00 | 47 | 1018.0 |
| 20260902093531 | 84 | 45 | 2.6 | 7.0 | 0.00 | 0.00 | 0.00 | 48 | 1018.0 |
| 20260902092528 | 84 | 53 | 1.7 | 6.1 | 0.00 | 0.00 | 0.00 | 50 | 1018.0 |
| 20260902091525 | 84 | 61 | 1.7 | 7.0 | 0.00 | 0.00 | 0.00 | 50 | 1017.8 |
| 20260902090523 | 83 | 33 | 0.9 | 3.5 | 0.00 | 0.00 | 0.00 | 51 | 1017.8 |
| 20260902085520 | 83 | 244 | 0.9 | 3.5 | 0.00 | 0.00 | 0.00 | 54 | 1017.8 |
| 20260902084517 | 82 | 50 | 1.7 | 6.1 | 0.00 | 0.00 | 0.00 | 57 | 1017.7 |
| 20260902083515 | 81 | 42 | 3.5 | 6.1 | 0.00 | 0.00 | 0.00 | 59 | 1017.7 |
| 20260902082613 | 81 | 57 | 0.9 | 3.5 | 0.00 | 0.00 | 0.00 | 62 | 1017.6 |
| 20260902081610 | 81 | 63 | 0.0 | 1.7 | 0.00 | 0.00 | 0.00 | 62 | 1017.5 |
| 20260902080607 | 80 | 112 | 0.9 | 3.5 | 0.00 | 0.00 | 0.00 | 63 | 1017.4 |
| 20260902075605 | 79 | 107 | 0.9 | 1.7 | 0.00 | 0.00 | 0.00 | 65 | 1017.4 |
| 20260902074602 | 79 | 90 | 0.0 | 1.7 | 0.00 | 0.00 | 0.00 | 65 | 1017.2 |
| 20260902073600 | 79 | 100 | 0.0 | 1.7 | 0.00 | 0.00 | 0.00 | 64 | 1017.3 |
| 20260902072557 | 78 | 0.0 | 1.7 | 0.00 | 0.00 | 0.00 | 66 | 1017.3 | |
| 20260902071555 | 77 | 203 | 0.0 | 1.7 | 0.00 | 0.00 | 0.00 | 67 | 1017.3 |
| 20260902070552 | 76 | 248 | 0.0 | 1.7 | 0.00 | 0.00 | 0.00 | 70 | 1017.1 |
| 20260902065549 | 74 | 242 | 0.9 | 1.7 | 0.00 | 0.00 | 0.00 | 72 | 1017.1 |
| 20260902064547 | 74 | 234 | 0.9 | 1.7 | 0.00 | 0.00 | 0.00 | 72 | 1017.0 |
| 20260902063544 | 73 | 248 | 0.0 | 1.7 | 0.00 | 0.00 | 0.00 | 73 | 1016.8 |
| 20260902062542 | 73 | 158 | 0.0 | 1.7 | 0.00 | 0.00 | 0.00 | 74 | 1016.7 |
| 20260902061539 | 72 | 248 | 0.0 | 1.7 | 0.00 | 0.00 | 0.00 | 76 | 1016.6 |
| 20260902060536 | 71 | 189 | 0.9 | 1.7 | 0.00 | 0.00 | 0.00 | 78 | 1016.6 |
| 20260902055534 | 71 | 0.0 | 0.0 | 0.00 | 0.00 | 0.00 | 80 | 1016.4 | |
| 20260902054531 | 71 | 0.0 | 0.0 | 0.00 | 0.00 | 0.00 | 81 | 1016.4 | |
| 20260902053529 | 70 | 0.0 | 1.7 | 0.00 | 0.00 | 0.00 | 83 | 1016.4 | |
| 20260902052526 | 70 | 288 | 0.9 | 1.7 | 0.00 | 0.00 | 0.00 | 83 | 1016.4 |
| 20260902051523 | 70 | 270 | 0.0 | 1.7 | 0.00 | 0.00 | 0.00 | 83 | 1016.4 |
| 20260902050521 | 70 | 232 | 0.0 | 1.7 | 0.00 | 0.00 | 0.00 | 83 | 1016.1 |
| 20260902045518 | 70 | 0.0 | 1.7 | 0.00 | 0.00 | 0.00 | 83 | 1016.1 | |
| 20260902044516 | 70 | 0.0 | 0.0 | 0.00 | 0.00 | 0.00 | 83 | 1016.0 | |
| 20260902043613 | 70 | 0.0 | 0.0 | 0.00 | 0.00 | 0.00 | 82 | 1016.2 | |
| 20260902042611 | 70 | 248 | 0.0 | 1.7 | 0.00 | 0.00 | 0.00 | 83 | 1016.1 |
| 20260902041608 | 70 | 203 | 0.0 | 1.7 | 0.00 | 0.00 | 0.00 | 83 | 1016.0 |
| 20260902040605 | 71 | 0.0 | 0.0 | 0.00 | 0.00 | 0.00 | 83 | 1016.3 | |
| 20260902035603 | 71 | 248 | 0.0 | 1.7 | 0.00 | 0.00 | 0.00 | 84 | 1016.3 |
| 20260902034600 | 70 | 0.0 | 0.0 | 0.00 | 0.00 | 0.00 | 85 | 1016.3 | |
| 20260902033558 | 70 | 0.0 | 1.7 | 0.00 | 0.00 | 0.00 | 85 | 1016.3 | |
| 20260902032555 | 70 | 0.0 | 0.0 | 0.00 | 0.00 | 0.00 | 84 | 1016.5 | |
| 20260902031552 | 71 | 0.0 | 0.0 | 0.00 | 0.00 | 0.00 | 84 | 1016.5 | |
| 20260902030550 | 71 | 277 | 0.0 | 1.7 | 0.00 | 0.00 | 0.00 | 84 | 1016.3 |
| 20260902025547 | 71 | 0.0 | 0.0 | 0.00 | 0.00 | 0.00 | 84 | 1016.3 | |
| 20260902024545 | 71 | 0.0 | 0.0 | 0.00 | 0.00 | 0.00 | 85 | 1016.5 | |
| 20260902023542 | 70 | 0.0 | 1.7 | 0.00 | 0.00 | 0.00 | 85 | 1016.3 | |
| 20260902022539 | 70 | 225 | 2.6 | 3.5 | 0.00 | 0.00 | 0.00 | 86 | 1016.5 |
| 20260902021537 | 70 | 192 | 1.7 | 3.5 | 0.00 | 0.00 | 0.00 | 86 | 1016.5 |
| 20260902020534 | 71 | 225 | 0.0 | 1.7 | 0.00 | 0.00 | 0.00 | 86 | 1016.6 |
| 20260902015532 | 70 | 230 | 3.5 | 3.5 | 0.00 | 0.00 | 0.00 | 87 | 1016.7 |
| 20260902014529 | 70 | 230 | 2.6 | 3.5 | 0.00 | 0.00 | 0.00 | 87 | 1016.6 |
| 20260902013526 | 70 | 237 | 3.5 | 6.1 | 0.00 | 0.00 | 0.00 | 87 | 1016.9 |
| 20260902012524 | 71 | 227 | 0.9 | 3.5 | 0.00 | 0.00 | 0.00 | 86 | 1016.9 |
| 20260902011521 | 71 | 191 | 0.0 | 1.7 | 0.00 | 0.00 | 0.00 | 87 | 1016.9 |
| 20260902010519 | 71 | 240 | 1.7 | 3.5 | 0.00 | 0.00 | 0.00 | 87 | 1016.9 |
| 20260902005516 | 71 | 221 | 2.6 | 3.5 | 0.00 | 0.00 | 0.00 | 87 | 1017.1 |
| 20260902004614 | 71 | 222 | 2.6 | 3.5 | 0.00 | 0.00 | 0.00 | 87 | 1017.2 |
| 20260902003611 | 71 | 236 | 3.5 | 3.5 | 0.00 | 0.00 | 0.00 | 86 | 1017.0 |
| 20260902002608 | 71 | 209 | 1.7 | 3.5 | 0.00 | 0.00 | 0.00 | 86 | 1017.0 |
| 20260902001606 | 71 | 218 | 0.9 | 3.5 | 0.00 | 0.00 | 0.00 | 86 | 1017.2 |
| 20260902000603 | 71 | 225 | 1.7 | 1.7 | 0.00 | 0.00 | 0.00 | 86 | 1017.1 |
| 20260901235601 | 71 | 235 | 2.6 | 5.2 | 0.00 | 0.00 | 0.00 | 85 | 1017.0 |